sat.trackr.live / text

‹ back to catalog

ONEWEB-0554

NORAD 56056 · 2023-043L

PAYLOAD ACTIVE UNKNOWN

§ Identity

Operator
Country
UK
Launch date
2023-03-26
Launch site
SRILR
Launch vehicle
Mass (kg)
RCS (m²)

Purposes: comms

External: N2YO · Heavens-Above · Gunter

§ Orbital elements

Epoch: 2026-05-25T05:14:10.950720Z

Period
109.37 min
Inclination
87.9103°
Eccentricity
0.0002270
Mean motion
13.16593407 rev/d
Perigee alt
1,196.0 km
Apogee alt
1,199.5 km
Semi-major
7,575.9 km
B*
1.4739e-4
RAAN
233.3438°
Arg perigee
96.2083°
Mean anomaly
263.9306°
Rev number
15,593

§ Raw data

ONEWEB-05541 56056U 23043L   26145.21818230  .00000069  00000+0  14739-3 0  99982 56056  87.9103 233.3438 0002270  96.2083 263.9306 13.16593407155938

JSON: /api/v1/satellites/56056 · /tle

For live sub-satellite position, see the globe view (requires WebGL).

§ Visibility from observer

Set your observer location to see the next 7 days of passes ≥ 10°. The values pass through the URL so the page stays shareable.

No JS? Fill the form by hand. The geolocation button needs JavaScript.